Volver al catálogo

FENGYUN 1C DEB

LostSSO
NORAD 31778·DEBRIS·🇨🇳 China

Lanzado May 10, 1999 desde Taiyuan Satellite Launch Center

Loading…

Próximos Pases (próximas 24 horas)

TLE

ObsoletoSource: Space-Track

Época: Jun 2, 2011, 02:14 UTC

1 31778U 99025CGD 11153.09374280  .00000128  00000-0  86129-4 0  9996
2 31778 099.3182 203.0446 0046715 078.1140 282.5735 14.00176789738242

Sigue FENGYUN 1C DEB en tiempo real con AllMySat

Download on the App Store